Location: K�ln
(50.9455°N, 6.9544°E)
Time: 10:46:46
(UTC+02:00)

ISS - Visible Passes

Search period start: 13 May 2021 00:00
Search period end: 23 May 2021 00:00
Orbit: 417 x 422 km, 51.6° (Epoch: 13 May)

Date Brightness Start Highest point End Pass type
(mag) Time Alt. Az. Time Alt. Az. Time Alt. Az.
13 May -3.7 02:05:02 71° WNW 02:05:20 80° N 02:08:43 10° E visible
13 May -3.9 03:38:50 10° WNW 03:42:13 84° SSW 03:45:36 10° ESE visible
14 May -3.3 01:18:39 51° ENE 01:18:39 51° ENE 01:21:16 10° E visible
14 May -3.8 02:51:31 11° W 02:54:46 85° N 02:58:10 10° E visible
14 May -3.2 04:28:16 10° W 04:31:26 38° SSW 04:34:36 10° SE visible
14 May -2.6 22:51:13 10° SSW 22:53:58 23° SE 22:55:36 16° ESE visible
15 May -3.9 00:27:04 10° WSW 00:30:26 77° SSE 00:33:49 10° ENE visible
15 May -3.7 02:03:56 10° W 02:07:19 78° N 02:10:42 10° E visible
15 May -3.7 03:40:47 10° W 03:44:05 51° SSW 03:47:23 10° SE visible
15 May -2.1 22:04:29 10° S 22:06:42 16° SE 22:08:55 10° E visible
15 May -3.8 23:39:42 10° WSW 23:43:02 61° SSE 23:46:22 10° ENE visible
16 May -3.7 01:16:27 10° W 01:19:51 77° N 01:23:14 10° E visible
16 May -3.9 02:53:19 10° WNW 02:56:41 68° SSW 03:00:03 10° ESE visible
16 May -2.3 04:30:36 10° W 04:33:05 19° SW 04:35:34 10° S visible
16 May -3.5 22:52:25 10° SW 22:55:38 45° SSE 22:58:53 10° E visible
17 May -3.7 00:29:00 10° W 00:32:22 80° N 00:35:46 10° E visible
17 May -3.9 02:05:52 10° WNW 02:09:15 83° SSW 02:12:38 10° ESE visible
17 May -2.8 03:42:53 10° W 03:45:48 27° SSW 03:48:42 10° SSE visible
17 May -3.0 22:05:14 10° SW 22:08:17 33° SSE 22:11:22 10° E visible
17 May -3.8 23:41:32 10° WSW 23:44:55 89° NNW 23:48:18 10° E visible
18 May -3.8 01:18:25 10° W 01:21:48 85° N 01:22:56 39° E visible
18 May -1.4 02:55:19 10° W 02:55:49 13° W 02:55:49 13° W visible
18 May -3.9 22:54:06 10° WSW 22:57:28 77° SSE 23:00:51 10° ENE visible
19 May -3.7 00:30:57 10° W 00:34:20 78° N 00:36:31 20° E visible
19 May -2.2 02:07:48 10° W 02:09:26 25° W 02:09:26 25° W visible
19 May -3.7 22:06:44 10° WSW 22:10:03 61° SSE 22:13:24 10° ENE visible
19 May -3.6 23:43:29 10° W 23:46:52 77° N 23:50:15 10° E visible
20 May -3.6 01:20:21 10° WNW 01:23:16 58° WSW 01:23:16 58° WSW visible
20 May -3.7 22:56:00 10° W 22:59:23 80° N 23:02:47 10° E visible
21 May -3.9 00:32:54 10° WNW 00:36:16 83° SSW 00:37:12 45° ESE visible
21 May -1.2 02:09:55 10° W 02:10:08 11° W 02:10:08 11° W visible
21 May -3.7 22:08:33 10° W 22:11:56 89° N 22:15:19 10° E visible
21 May -3.8 23:45:26 10° W 23:48:49 85° NNE 23:51:10 19° E visible
22 May -2.2 01:22:19 10° W 01:24:06 25° WSW 01:24:06 25° WSW visible
22 May -3.6 22:57:58 10° W 23:01:20 78° N 23:04:44 10° E visible
